15-02-2023, 00:00:08,    150,    0.0,    1.1,   0.00,   0.00, 1021.7,    0.1, -999.0
15-02-2023, 00:00:18,    149,    0.0,    1.0,   0.00,   0.00, 1021.6,    0.2, -999.0
15-02-2023, 00:00:28,    149,    0.0,    1.1,   0.00,   0.00, 1021.6,    0.1, -999.0
15-02-2023, 00:00:38,    149,    0.0,    1.1,   0.00,   0.00, 1021.6,    0.1, -999.0
15-02-2023, 00:00:48,    149,    0.0,    0.9,   0.00,   0.00, 1021.7,    0.0, -999.0
15-02-2023, 00:00:58,    149,    0.0,    1.0,   0.00,   0.00, 1021.6,    0.1, -999.0
15-02-2023, 00:01:08,    150,    0.0,    1.0,   0.00,   0.00, 1021.6,    0.1, -999.0
15-02-2023, 00:01:18,    149,    0.0,    1.0,   0.00,   0.00, 1021.6,    0.1, -999.0
15-02-2023, 00:01:28,    149,    0.0,    1.0,   0.00,   0.00, 1021.6,    0.1, -999.0
15-02-2023, 00:01:38,    149,    0.0,    1.0,   0.00,   0.00, 1021.6,    0.1, -999.0
15-02-2023, 00:01:48,    149,    0.0,    0.9,   0.00,   0.00, 1021.6,    0.2, -999.0
15-02-2023, 00:01:58,    150,    0.0,    1.0,   0.00,   0.00, 1021.6,    0.1, -999.0
15-02-2023, 00:02:08,    149,    0.0,    0.9,   0.00,   0.00, 1021.6,    0.1, -999.0
15-02-2023, 00:02:18,    149,    0.0,    0.8,   0.00,   0.00, 1021.6,    0.1, -999.0
15-02-2023, 00:02:28,    149,    0.0,    0.8,   0.00,   0.00, 1021.6,    0.2, -999.0
15-02-2023, 00:02:38,    149,    0.0,    0.8,   0.00,   0.00, 1021.6,    0.1, -999.0
15-02-2023, 00:02:48,    149,    0.0,    0.8,   0.00,   0.00, 1021.6,    0.1, -999.0
15-02-2023, 00:02:58,    150,    0.0,    0.7,   0.00,   0.00, 1021.6,    0.0, -999.0
15-02-2023, 00:03:08,    150,    0.0,    0.6,   0.00,   0.00, 1021.6,    0.1, -999.0
15-02-2023, 00:03:18,    149,    0.0,    0.7,   0.00,   0.00, 1021.6,    0.1, -999.0
15-02-2023, 00:03:28,    149,    0.0,    0.8,   0.00,   0.00, 1021.6,    0.1, -999.0
15-02-2023, 00:03:38,    149,    0.0,    0.7,   0.00,   0.00, 1021.6,    0.0, -999.0
15-02-2023, 00:03:48,    150,    0.0,    0.6,   0.00,   0.00, 1021.6,    0.1, -999.0
15-02-2023, 00:03:58,    149,    0.0,    0.7,   0.00,   0.00, 1021.6,    0.0, -999.0
15-02-2023, 00:04:08,    149,    0.0,    0.7,   0.00,   0.00, 1021.6,    0.2, -999.0
15-02-2023, 00:04:18,    149,    0.0,    0.7,   0.00,   0.00, 1021.6,    0.0, -999.0
15-02-2023, 00:04:28,    149,    0.0,    0.8,   0.00,   0.00, 1021.6,    0.1, -999.0
15-02-2023, 00:04:38,    149,    0.0,    0.8,   0.00,   0.00, 1021.6,    0.1, -999.0
15-02-2023, 00:04:48,    149,    0.0,    0.7,   0.00,   0.00, 1021.6,    0.0, -999.0
15-02-2023, 00:04:58,    149,    0.0,    0.7,   0.00,   0.00, 1021.6,    0.2, -999.0
15-02-2023, 00:05:08,    149,    0.0,    0.7,   0.00,   0.00, 1021.6,    0.0, -999.0
15-02-2023, 00:05:17,    149,    0.0,    0.6,   0.00,   0.00, 1021.6,    0.1, -999.0
15-02-2023, 00:05:28,    149,    0.0,    0.7,   0.00,   0.00, 1021.6,    0.1, -999.0
15-02-2023, 00:05:38,    149,    0.0,    0.6,   0.00,   0.00, 1021.6,    0.0, -999.0
15-02-2023, 00:05:47,    149,    0.0,    0.7,   0.00,   0.00, 1021.6,    0.0, -999.0
15-02-2023, 00:05:57,    149,    0.0,    0.7,   0.00,   0.00, 1021.6,    0.0, -999.0
15-02-2023, 00:06:08,    147,    0.0,    0.6,   0.00,   0.00, 1021.6,    0.0, -999.0
15-02-2023, 00:06:18,    148,    0.0,    0.6,   0.00,   0.00, 1021.6,    0.1, -999.0
15-02-2023, 00:06:27,    149,    0.0,    0.6,   0.00,   0.00, 1021.6,    0.0, -999.0
15-02-2023, 00:06:38,    149,    0.0,    0.6,   0.00,   0.00, 1021.6,    0.0, -999.0
15-02-2023, 00:06:48,    149,    0.0,    0.6,   0.00,   0.00, 1021.6,    0.1, -999.0
15-02-2023, 00:06:57,    149,    0.0,    0.6,   0.00,   0.00, 1021.6,    0.1, -999.0
15-02-2023, 00:07:07,    149,    0.0,    0.6,   0.00,   0.00, 1021.6,    0.0, -999.0
15-02-2023, 00:07:18,    150,    0.0,    0.6,   0.00,   0.00, 1021.6,    0.1, -999.0
15-02-2023, 00:07:28,    149,    0.0,    0.5,   0.00,   0.00, 1021.6,    0.0, -999.0
15-02-2023, 00:07:37,    149,    0.0,    0.5,   0.00,   0.00, 1021.6,    0.0, -999.0
15-02-2023, 00:07:47,    149,    0.0,    0.6,   0.00,   0.00, 1021.6,    0.1, -999.0
15-02-2023, 00:07:58,    150,    0.0,    0.6,   0.00,   0.00, 1021.6,    0.1, -999.0
15-02-2023, 00:08:07,    149,    0.0,    0.5,   0.00,   0.00, 1021.6,    0.0, -999.0
15-02-2023, 00:08:17,    149,    0.0,    0.5,   0.00,   0.00, 1021.6,    0.0, -999.0
15-02-2023, 00:08:27,    150,    0.0,    0.6,   0.00,   0.00, 1021.6,    0.1, -999.0
15-02-2023, 00:08:38,    150,    0.0,    0.5,   0.00,   0.00, 1021.6,    0.0, -999.0
15-02-2023, 00:08:47,    149,    0.0,    0.5,   0.00,   0.00, 1021.6,    0.0, -999.0
15-02-2023, 00:08:57,    150,    0.0,    0.5,   0.00,   0.00, 1021.6,    0.0, -999.0
15-02-2023, 00:09:07,    149,    0.0,    0.4,   0.00,   0.00, 1021.6,    0.0, -999.0
15-02-2023, 00:09:17,    149,    0.0,    0.4,   0.00,   0.00, 1021.6,    0.0, -999.0
15-02-2023, 00:09:27,    149,    0.0,    0.4,   0.00,   0.00, 1021.6,    0.0, -999.0
15-02-2023, 00:09:37,    149,    0.0,    0.4,   0.00,   0.00, 1021.6,    0.1, -999.0
15-02-2023, 00:09:47,    149,    0.0,    0.5,   0.00,   0.00, 1021.6,    0.1, -999.0
15-02-2023, 00:09:57,    149,    0.0,    0.4,   0.00,   0.00, 1021.6,    0.1, -999.0
15-02-2023, 00:10:07,    149,    0.0,    0.4,   0.00,   0.00, 1021.6,    0.0, -999.0
15-02-2023, 00:10:17,    149,    0.0,    0.4,   0.00,   0.00, 1021.6,    0.1, -999.0
15-02-2023, 00:10:27,    149,    0.0,    0.4,   0.00,   0.00, 1021.6,    0.0, -999.0
15-02-2023, 00:10:37,    149,    0.0,    0.3,   0.00,   0.00, 1021.6,    0.0, -999.0
15-02-2023, 00:10:47,    149,    0.0,    0.3,   0.00,   0.00, 1021.6,    0.0, -999.0
15-02-2023, 00:10:57,    149,    0.0,    0.4,   0.00,   0.00, 1021.6,    0.1, -999.0
15-02-2023, 00:11:07,    149,    0.0,    0.3,   0.00,   0.00, 1021.6,    0.0, -999.0
15-02-2023, 00:11:17,    149,    0.0,    0.4,   0.00,   0.00, 1021.6,    0.1, -999.0
15-02-2023, 00:11:27,    150,    0.0,    0.4,   0.00,   0.00, 1021.6,    0.2, -999.0
15-02-2023, 00:11:37,    149,    0.0,    0.4,   0.00,   0.00, 1021.6,    0.0, -999.0
15-02-2023, 00:11:47,    149,    0.0,    0.4,   0.00,   0.00, 1021.6,    0.0, -999.0
15-02-2023, 00:11:57,    149,    0.0,    0.4,   0.00,   0.00, 1021.6,    0.2, -999.0
15-02-2023, 00:12:07,    149,    0.0,    0.4,   0.00,   0.00, 1021.6,    0.0, -999.0
15-02-2023, 00:12:17,    149,    0.0,    0.4,   0.00,   0.00, 1021.6,    0.1, -999.0
15-02-2023, 00:12:27,    149,    0.0,    0.4,   0.00,   0.00, 1021.5,    0.2, -999.0
15-02-2023, 00:12:37,    149,    0.0,    0.3,   0.00,   0.00, 1021.6,    0.1, -999.0
15-02-2023, 00:12:47,    149,    0.0,    0.3,   0.00,   0.00, 1021.6,    0.0, -999.0
15-02-2023, 00:12:57,    149,    0.0,    0.3,   0.00,   0.00, 1021.6,    0.1, -999.0
15-02-2023, 00:13:07,    150,    0.0,    0.4,   0.00,   0.00, 1021.6,    0.1, -999.0
15-02-2023, 00:13:17,    149,    0.0,    0.4,   0.00,   0.00, 1021.5,    0.1, -999.0
15-02-2023, 00:13:27,    149,    0.0,    0.3,   0.00,   0.00, 1021.5,    0.0, -999.0
15-02-2023, 00:13:37,    150,    0.0,    0.3,   0.00,   0.00, 1021.5,    0.0, -999.0
15-02-2023, 00:13:47,    150,    0.0,    0.3,   0.00,   0.00, 1021.5,    0.1, -999.0
15-02-2023, 00:13:57,    149,    0.0,    0.3,   0.00,   0.00, 1021.5,    0.1, -999.0
15-02-2023, 00:14:07,    149,    0.0,    0.3,   0.00,   0.00, 1021.5,    0.2, -999.0
15-02-2023, 00:14:17,    149,    0.0,    0.3,   0.00,   0.00, 1021.5,    0.1, -999.0
15-02-2023, 00:14:27,    149,    0.0,    0.3,   0.00,   0.00, 1021.5,    0.1, -999.0
15-02-2023, 00:14:37,    149,    0.0,    0.3,   0.00,   0.00, 1021.5,    0.1, -999.0
15-02-2023, 00:14:48,    149,    0.0,    0.3,   0.00,   0.00, 1021.5,    0.0, -999.0
15-02-2023, 00:14:57,    149,    0.0,    0.2,   0.00,   0.00, 1021.5,    0.0, -999.0
15-02-2023, 00:15:07,    149,    0.0,    0.4,   0.00,   0.00, 1021.5,    0.1, -999.0
15-02-2023, 00:15:17,    149,    0.0,    0.3,   0.00,   0.00, 1021.5,    0.1, -999.0
15-02-2023, 00:15:27,    149,    0.0,    0.3,   0.00,   0.00, 1021.5,    0.0, -999.0
15-02-2023, 00:15:37,    149,    0.0,    0.3,   0.00,   0.00, 1021.5,    0.0, -999.0
15-02-2023, 00:15:46,    149,    0.0,    0.2,   0.00,   0.00, 1021.4,    0.0, -999.0
15-02-2023, 00:15:57,    149,    0.0,    0.3,   0.00,   0.00, 1021.4,    0.0, -999.0
15-02-2023, 00:16:07,    149,    0.0,    0.3,   0.00,   0.00, 1021.4,    0.1, -999.0
15-02-2023, 00:16:17,    149,    0.0,    0.4,   0.00,   0.00, 1021.4,    0.1, -999.0
15-02-2023, 00:16:26,    149,    0.0,    0.3,   0.00,   0.00, 1021.4,    0.2, -999.0
15-02-2023, 00:16:37,    149,    0.0,    0.2,   0.00,   0.00, 1021.5,    0.0, -999.0
15-02-2023, 00:16:47,    150,    0.0,    0.3,   0.00,   0.00, 1021.4,    0.0, -999.0
15-02-2023, 00:16:56,    149,    0.0,    0.3,   0.00,   0.00, 1021.4,    0.0, -999.0
15-02-2023, 00:17:06,    149,    0.0,    0.3,   0.00,   0.00, 1021.4,    0.1, -999.0
15-02-2023, 00:17:17,    150,    0.0,    0.3,   0.00,   0.00, 1021.4,    0.0, -999.0
15-02-2023, 00:17:27,    148,    0.0,    0.3,   0.00,   0.00, 1021.4,    0.1, -999.0
15-02-2023, 00:17:36,    150,    0.0,    0.3,   0.00,   0.00, 1021.4,    0.2, -999.0
15-02-2023, 00:17:46,    150,    0.0,    0.3,   0.00,   0.00, 1021.4,    0.1, -999.0
15-02-2023, 00:17:57,    149,    0.0,    0.3,   0.00,   0.00, 1021.5,    0.0, -999.0
15-02-2023, 00:18:06,    149,    0.0,    0.4,   0.00,   0.00, 1021.4,    0.2, -999.0
15-02-2023, 00:18:16,    150,    0.0,    0.4,   0.00,   0.00, 1021.4,    0.1, -999.0
15-02-2023, 00:18:26,    150,    0.0,    0.5,   0.00,   0.00, 1021.4,    0.1, -999.0
15-02-2023, 00:18:37,    149,    0.0,    0.6,   0.00,   0.00, 1021.4,    0.0, -999.0
15-02-2023, 00:18:46,    149,    0.0,    0.7,   0.00,   0.00, 1021.4,    0.0, -999.0
15-02-2023, 00:18:56,    150,    0.0,    0.6,   0.00,   0.00, 1021.4,    0.0, -999.0
15-02-2023, 00:19:06,    149,    0.0,    0.6,   0.00,   0.00, 1021.4,    0.1, -999.0
15-02-2023, 00:19:16,    149,    0.0,    0.7,   0.00,   0.00, 1021.4,    0.1, -999.0
15-02-2023, 00:19:26,    149,    0.0,    0.7,   0.00,   0.00, 1021.4,    0.0, -999.0
15-02-2023, 00:19:36,    149,    0.0,    0.6,   0.00,   0.00, 1021.4,    0.0, -999.0
15-02-2023, 00:19:47,    149,    0.0,    0.8,   0.00,   0.00, 1021.4,    0.0, -999.0
15-02-2023, 00:19:56,    149,    0.0,    0.8,   0.00,   0.00, 1021.4,    0.0, -999.0
15-02-2023, 00:20:06,    149,    0.0,    0.8,   0.00,   0.00, 1021.4,    0.0, -999.0
15-02-2023, 00:20:16,    149,    0.0,    0.8,   0.00,   0.00, 1021.4,    0.0, -999.0
15-02-2023, 00:20:26,    150,    0.0,    0.6,   0.00,   0.00, 1021.4,    0.1, -999.0
15-02-2023, 00:20:36,    149,    0.0,    0.6,   0.00,   0.00, 1021.4,    0.1, -999.0
15-02-2023, 00:20:46,    149,    0.0,    0.6,   0.00,   0.00, 1021.4,    0.1, -999.0
15-02-2023, 00:20:56,    149,    0.0,    0.6,   0.00,   0.00, 1021.4,    0.1, -999.0
15-02-2023, 00:21:06,    150,    0.0,    0.6,   0.00,   0.00, 1021.4,    0.0, -999.0
15-02-2023, 00:21:16,    148,    0.0,    0.6,   0.00,   0.00, 1021.4,    0.1, -999.0
15-02-2023, 00:21:26,    150,    0.0,    0.6,   0.00,   0.00, 1021.4,    0.1, -999.0
15-02-2023, 00:21:36,    149,    0.0,    0.7,   0.00,   0.00, 1021.4,    0.3, -999.0
15-02-2023, 00:21:46,    150,    0.0,    0.6,   0.00,   0.00, 1021.4,    0.0, -999.0
15-02-2023, 00:21:56,    149,    0.0,    0.5,   0.00,   0.00, 1021.3,    0.1, -999.0
15-02-2023, 00:22:06,    149,    0.0,    0.6,   0.00,   0.00, 1021.3,    0.1, -999.0
15-02-2023, 00:22:16,    150,    0.0,    0.6,   0.00,   0.00, 1021.3,    0.0, -999.0
15-02-2023, 00:22:26,    149,    0.0,    0.5,   0.00,   0.00, 1021.3,    0.1, -999.0
15-02-2023, 00:22:36,    149,    0.0,    0.5,   0.00,   0.00, 1021.3,    0.0, -999.0
15-02-2023, 00:22:46,    149,    0.0,    0.5,   0.00,   0.00, 1021.3,    0.0, -999.0
15-02-2023, 00:22:56,    150,    0.0,    0.4,   0.00,   0.00, 1021.3,    0.2, -999.0
15-02-2023, 00:23:06,    149,    0.0,    0.5,   0.00,   0.00, 1021.3,    0.1, -999.0
15-02-2023, 00:23:16,    149,    0.0,    0.5,   0.00,   0.00, 1021.3,    0.0, -999.0
15-02-2023, 00:23:26,    149,    0.0,    0.5,   0.00,   0.00, 1021.3,    0.1, -999.0
15-02-2023, 00:23:36,    149,    0.0,    0.4,   0.00,   0.00, 1021.4,    0.1, -999.0
15-02-2023, 00:23:46,    150,    0.0,    0.4,   0.00,   0.00, 1021.3,    0.0, -999.0
15-02-2023, 00:23:56,    149,    0.0,    0.5,   0.00,   0.00, 1021.3,    0.0, -999.0
15-02-2023, 00:24:06,    150,    0.0,    0.5,   0.00,   0.00, 1021.3,    0.1, -999.0
15-02-2023, 00:24:16,    149,    0.0,    0.5,   0.00,   0.00, 1021.3,    0.1, -999.0
15-02-2023, 00:24:26,    149,    0.0,    0.5,   0.00,   0.00, 1021.3,    0.1, -999.0
15-02-2023, 00:24:36,    149,    0.0,    0.5,   0.00,   0.00, 1021.3,    0.1, -999.0
15-02-2023, 00:24:46,    149,    0.0,    0.4,   0.00,   0.00, 1021.3,    0.2, -999.0
15-02-2023, 00:24:56,    149,    0.0,    0.4,   0.00,   0.00, 1021.3,    0.1, -999.0
15-02-2023, 00:25:06,    150,    0.0,    0.4,   0.00,   0.00, 1021.3,    0.1, -999.0
15-02-2023, 00:25:16,    149,    0.0,    0.4,   0.00,   0.00, 1021.3,    0.0, -999.0
15-02-2023, 00:25:26,    149,    0.0,    0.4,   0.00,   0.00, 1021.3,    0.0, -999.0
15-02-2023, 00:25:36,    149,    0.0,    0.4,   0.00,   0.00, 1021.3,    0.0, -999.0
15-02-2023, 00:25:46,    149,    0.0,    0.4,   0.00,   0.00, 1021.3,    0.0, -999.0
15-02-2023, 00:25:56,    149,    0.0,    0.4,   0.00,   0.00, 1021.2,    0.0, -999.0
15-02-2023, 00:26:06,    149,    0.0,    0.4,   0.00,   0.00, 1021.2,    0.1, -999.0
15-02-2023, 00:26:15,    149,    0.0,    0.5,   0.00,   0.00, 1021.2,    0.1, -999.0
15-02-2023, 00:26:26,    150,    0.0,    0.4,   0.00,   0.00, 1021.2,    0.0, -999.0
15-02-2023, 00:26:36,    149,    0.0,    0.4,   0.00,   0.00, 1021.2,    0.1, -999.0
15-02-2023, 00:26:46,    149,    0.0,    0.4,   0.00,   0.00, 1021.2,    0.0, -999.0
15-02-2023, 00:26:55,    149,    0.0,    0.4,   0.00,   0.00, 1021.2,    0.1, -999.0
15-02-2023, 00:27:06,    149,    0.0,    0.4,   0.00,   0.00, 1021.2,    0.0, -999.0
15-02-2023, 00:27:16,    149,    0.0,    0.5,   0.00,   0.00, 1021.2,    0.1, -999.0
15-02-2023, 00:27:26,    150,    0.0,    0.4,   0.00,   0.00, 1021.2,    0.2, -999.0
15-02-2023, 00:27:35,    149,    0.0,    0.4,   0.00,   0.00, 1021.2,    0.1, -999.0
15-02-2023, 00:27:46,    148,    0.0,    0.3,   0.00,   0.00, 1021.2,    0.0, -999.0
15-02-2023, 00:27:56,    149,    0.0,    0.5,   0.00,   0.00, 1021.2,    0.0, -999.0
15-02-2023, 00:28:05,    149,    0.0,    0.5,   0.00,   0.00, 1021.2,    0.0, -999.0
15-02-2023, 00:28:15,    149,    0.0,    0.4,   0.00,   0.00, 1021.2,    0.2, -999.0
15-02-2023, 00:28:26,    149,    0.0,    0.4,   0.00,   0.00, 1021.2,    0.2, -999.0
15-02-2023, 00:28:35,    150,    0.0,    0.4,   0.00,   0.00, 1021.2,    0.1, -999.0
15-02-2023, 00:28:45,    150,    0.0,    0.5,   0.00,   0.00, 1021.2,    0.0, -999.0
15-02-2023, 00:28:55,    149,    0.0,    0.5,   0.00,   0.00, 1021.2,    0.0, -999.0
15-02-2023, 00:29:06,    149,    0.0,    0.3,   0.00,   0.00, 1021.2,    0.0, -999.0
15-02-2023, 00:29:15,    150,    0.0,    0.4,   0.00,   0.00, 1021.2,    0.0, -999.0
15-02-2023, 00:29:25,    149,    0.0,    0.4,   0.00,   0.00, 1021.2,    0.2, -999.0
15-02-2023, 00:29:35,    149,    0.0,    0.3,   0.00,   0.00, 1021.2,    0.0, -999.0
15-02-2023, 00:29:45,    150,    0.0,    0.4,   0.00,   0.00, 1021.2,    0.1, -999.0
15-02-2023, 00:29:55,    149,    0.0,    0.4,   0.00,   0.00, 1021.2,    0.1, -999.0
15-02-2023, 00:30:05,    149,    0.0,    0.4,   0.00,   0.00, 1021.2,    0.1, -999.0
15-02-2023, 00:30:16,    150,    0.0,    0.4,   0.00,   0.00, 1021.2,    0.1, -999.0
15-02-2023, 00:30:25,    149,    0.0,    0.3,   0.00,   0.00, 1021.2,    0.0, -999.0
15-02-2023, 00:30:35,    149,    0.0,    0.4,   0.00,   0.00, 1021.2,    0.1, -999.0
15-02-2023, 00:30:45,    149,    0.0,    0.4,   0.00,   0.00, 1021.2,    0.2, -999.0
15-02-2023, 00:30:55,    149,    0.0,    0.4,   0.00,   0.00, 1021.2,    0.2, -999.0
15-02-2023, 00:31:05,    149,    0.0,    0.4,   0.00,   0.00, 1021.2,    0.1, -999.0
15-02-2023, 00:31:15,    149,    0.0,    0.4,   0.00,   0.00, 1021.2,    0.1, -999.0
15-02-2023, 00:31:25,    149,    0.0,    0.3,   0.00,   0.00, 1021.2,    0.0, -999.0
15-02-2023, 00:31:35,    149,    0.0,    0.4,   0.00,   0.00, 1021.2,    0.0, -999.0
15-02-2023, 00:31:45,    149,    0.0,    0.4,   0.00,   0.00, 1021.2,    0.1, -999.0
15-02-2023, 00:31:55,    149,    0.0,    0.4,   0.00,   0.00, 1021.2,    0.1, -999.0
15-02-2023, 00:32:05,    149,    0.0,    0.4,   0.00,   0.00, 1021.2,    0.0, -999.0
15-02-2023, 00:32:15,    150,    0.0,    0.4,   0.00,   0.00, 1021.2,    0.0, -999.0
15-02-2023, 00:32:25,    149,    0.0,    0.3,   0.00,   0.00, 1021.2,    0.0, -999.0
15-02-2023, 00:32:35,    149,    0.0,    0.4,   0.00,   0.00, 1021.2,    0.4, -999.0
15-02-2023, 00:32:45,    149,    0.0,    0.4,   0.00,   0.00, 1021.2,    0.0, -999.0
15-02-2023, 00:32:55,    149,    0.0,    0.3,   0.00,   0.00, 1021.2,    0.0, -999.0
15-02-2023, 00:33:05,    149,    0.0,    0.3,   0.00,   0.00, 1021.2,    0.1, -999.0
15-02-2023, 00:33:15,    149,    0.0,    0.3,   0.00,   0.00, 1021.1,    0.1, -999.0
15-02-2023, 00:33:25,    150,    0.0,    0.3,   0.00,   0.00, 1021.2,    0.2, -999.0
15-02-2023, 00:33:35,    149,    0.0,    0.3,   0.00,   0.00, 1021.2,    0.0, -999.0
15-02-2023, 00:33:45,    149,    0.0,    0.4,   0.00,   0.00, 1021.2,    0.0, -999.0
15-02-2023, 00:33:55,    149,    0.0,    0.4,   0.00,   0.00, 1021.2,    0.1, -999.0
15-02-2023, 00:34:05,    149,    0.0,    0.3,   0.00,   0.00, 1021.2,    0.0, -999.0
15-02-2023, 00:34:15,    149,    0.0,    0.4,   0.00,   0.00, 1021.2,    0.1, -999.0
15-02-2023, 00:34:25,    150,    0.0,    0.4,   0.00,   0.00, 1021.2,    0.1, -999.0
15-02-2023, 00:34:35,    149,    0.0,    0.3,   0.00,   0.00, 1021.2,    0.1, -999.0
15-02-2023, 00:34:45,    148,    0.0,    0.2,   0.00,   0.00, 1021.2,    0.0, -999.0
15-02-2023, 00:34:55,    149,    0.0,    0.3,   0.00,   0.00, 1021.2,    0.0, -999.0
15-02-2023, 00:35:05,    149,    0.0,    0.3,   0.00,   0.00, 1021.2,    0.1, -999.0
15-02-2023, 00:35:15,    149,    0.0,    0.2,   0.00,   0.00, 1021.2,    0.1, -999.0
15-02-2023, 00:35:25,    150,    0.0,    0.2,   0.00,   0.00, 1021.2,    0.1, -999.0
15-02-2023, 00:35:35,    149,    0.0,    0.2,   0.00,   0.00, 1021.1,    0.2, -999.0
15-02-2023, 00:35:45,    149,    0.0,    0.0,   0.00,   0.00, 1021.2,    0.0, -999.0
15-02-2023, 00:35:55,    149,    0.0,    0.2,   0.00,   0.00, 1021.2,    0.1, -999.0
15-02-2023, 00:36:05,    149,    0.0,    0.1,   0.00,   0.00, 1021.2,    0.0, -999.0
15-02-2023, 00:36:15,    149,    0.0,    0.1,   0.00,   0.00, 1021.2,    0.1, -999.0
15-02-2023, 00:36:25,    149,    0.0,    0.1,   0.00,   0.00, 1021.1,    0.0, -999.0
15-02-2023, 00:36:35,    149,    0.0,    0.0,   0.00,   0.00, 1021.2,    0.1, -999.0
15-02-2023, 00:36:45,    149,    0.0,    0.0,   0.00,   0.00, 1021.1,    0.0, -999.0
15-02-2023, 00:36:55,    150,    0.0,    0.0,   0.00,   0.00, 1021.1,    0.1, -999.0
15-02-2023, 00:37:05,    149,    0.0,    0.0,   0.00,   0.00, 1021.1,    0.0, -999.0
15-02-2023, 00:37:15,    150,    0.0,    0.0,   0.00,   0.00, 1021.1,    0.2, -999.0
15-02-2023, 00:37:24,    149,    0.0,    0.0,   0.00,   0.00, 1021.1,    0.1, -999.0
15-02-2023, 00:37:35,    149,    0.0,    0.0,   0.00,   0.00, 1021.1,    0.0, -999.0
15-02-2023, 00:37:45,    149,    0.0,    0.0,   0.00,   0.00, 1021.2,    0.0, -999.0
15-02-2023, 00:37:55,    150,    0.0,    0.0,   0.00,   0.00, 1021.1,    0.0, -999.0
15-02-2023, 00:38:04,    149,    0.0,    0.0,   0.00,   0.00, 1021.1,    0.1, -999.0
15-02-2023, 00:38:15,    149,    0.0,    0.0,   0.00,   0.00, 1021.1,    0.0, -999.0
15-02-2023, 00:38:25,    149,    0.0,    0.0,   0.00,   0.00, 1021.1,    0.0, -999.0
15-02-2023, 00:38:34,    149,    0.0,    0.0,   0.00,   0.00, 1021.1,    0.0, -999.0
15-02-2023, 00:38:44,    150,    0.0,    0.0,   0.00,   0.00, 1021.1,    0.0, -999.0
15-02-2023, 00:38:55,    149,    0.0,   -0.1,   0.00,   0.00, 1021.0,    0.1, -999.0
15-02-2023, 00:39:05,    148,    0.0,    0.0,   0.00,   0.00, 1021.1,    0.1, -999.0
15-02-2023, 00:39:14,    149,    0.0,    0.0,   0.00,   0.00, 1021.0,    0.1, -999.0
15-02-2023, 00:39:24,    149,    0.0,    0.0,   0.00,   0.00, 1021.0,    0.0, -999.0
15-02-2023, 00:39:35,    149,    0.0,    0.1,   0.00,   0.00, 1021.1,    0.1, -999.0
15-02-2023, 00:39:44,    149,    0.0,    0.0,   0.00,   0.00, 1021.0,    0.2, -999.0
15-02-2023, 00:39:54,    149,    0.0,    0.0,   0.00,   0.00, 1021.0,    0.0, -999.0
15-02-2023, 00:40:04,    149,    0.0,    0.0,   0.00,   0.00, 1021.0,    0.1, -999.0
15-02-2023, 00:40:15,    149,    0.0,    0.0,   0.00,   0.00, 1021.0,    0.1, -999.0
15-02-2023, 00:40:24,    150,    0.0,    0.0,   0.00,   0.00, 1021.0,    0.1, -999.0
15-02-2023, 00:40:34,    149,    0.0,    0.0,   0.00,   0.00, 1021.1,    0.1, -999.0
15-02-2023, 00:40:44,    149,    0.0,    0.0,   0.00,   0.00, 1021.0,    0.1, -999.0
15-02-2023, 00:40:54,    149,    0.0,    0.0,   0.00,   0.00, 1021.0,    0.0, -999.0
15-02-2023, 00:41:04,    149,    0.0,    0.0,   0.00,   0.00, 1021.1,    0.0, -999.0
15-02-2023, 00:41:14,    149,    0.0,   -0.1,   0.00,   0.00, 1021.0,    0.1, -999.0
15-02-2023, 00:41:24,    150,    0.0,    0.0,   0.00,   0.00, 1021.1,    0.2, -999.0
15-02-2023, 00:41:34,    150,    0.0,   -0.1,   0.00,   0.00, 1021.1,    0.0, -999.0
15-02-2023, 00:41:44,    149,    0.0,    0.0,   0.00,   0.00, 1021.1,    0.2, -999.0
15-02-2023, 00:41:54,    149,    0.0,    0.0,   0.00,   0.00, 1021.1,    0.1, -999.0
15-02-2023, 00:42:04,    149,    0.0,   -0.2,   0.00,   0.00, 1021.1,    0.1, -999.0
15-02-2023, 00:42:14,    150,    0.0,    0.0,   0.00,   0.00, 1021.1,    0.1, -999.0
15-02-2023, 00:42:24,    149,    0.0,   -0.1,   0.00,   0.00, 1021.0,    0.0, -999.0
15-02-2023, 00:42:34,    149,    0.0,    0.0,   0.00,   0.00, 1021.1,    0.1, -999.0
15-02-2023, 00:42:44,    149,    0.0,   -0.1,   0.00,   0.00, 1021.1,    0.1, -999.0
15-02-2023, 00:42:54,    149,    0.0,   -0.1,   0.00,   0.00, 1021.0,    0.1, -999.0
15-02-2023, 00:43:04,    149,    0.0,    0.0,   0.00,   0.00, 1021.1,    0.1, -999.0
15-02-2023, 00:43:14,    149,    0.0,    0.0,   0.00,   0.00, 1021.0,    0.2, -999.0
15-02-2023, 00:43:24,    149,    0.0,   -0.1,   0.00,   0.00, 1021.0,    0.1, -999.0
15-02-2023, 00:43:34,    149,    0.0,   -0.1,   0.00,   0.00, 1021.0,    0.1, -999.0
15-02-2023, 00:43:44,    150,    0.0,   -0.1,   0.00,   0.00, 1021.0,    0.0, -999.0
15-02-2023, 00:43:54,    149,    0.0,    0.0,   0.00,   0.00, 1021.0,    0.1, -999.0
15-02-2023, 00:44:04,    149,    0.0,   -0.2,   0.00,   0.00, 1021.0,    0.1, -999.0
15-02-2023, 00:44:14,    149,    0.0,   -0.1,   0.00,   0.00, 1021.0,    0.2, -999.0
15-02-2023, 00:44:24,    150,    0.0,    0.0,   0.00,   0.00, 1021.0,    0.1, -999.0
15-02-2023, 00:44:34,    149,    0.0,    0.0,   0.00,   0.00, 1021.0,    0.1, -999.0
15-02-2023, 00:44:44,    150,    0.0,    0.0,   0.00,   0.00, 1021.0,    0.0, -999.0
15-02-2023, 00:44:54,    149,    0.0,   -0.1,   0.00,   0.00, 1021.0,    0.1, -999.0
15-02-2023, 00:45:04,    149,    0.0,    0.0,   0.00,   0.00, 1021.0,    0.1, -999.0
15-02-2023, 00:45:14,    150,    0.0,   -0.1,   0.00,   0.00, 1021.0,    0.1, -999.0
15-02-2023, 00:45:24,    149,    0.0,    0.0,   0.00,   0.00, 1021.0,    0.1, -999.0
15-02-2023, 00:45:34,    149,    0.0,    0.0,   0.00,   0.00, 1021.0,    0.2, -999.0
15-02-2023, 00:45:44,    149,    0.0,    0.0,   0.00,   0.00, 1021.0,    0.1, -999.0
15-02-2023, 00:45:54,    149,    0.0,   -0.1,   0.00,   0.00, 1021.0,    0.0, -999.0
15-02-2023, 00:46:04,    149,    0.0,   -0.1,   0.00,   0.00, 1021.0,    0.0, -999.0
15-02-2023, 00:46:14,    150,    0.0,    0.0,   0.00,   0.00, 1021.0,    0.1, -999.0
15-02-2023, 00:46:24,    149,    0.0,   -0.2,   0.00,   0.00, 1021.0,    0.2, -999.0
15-02-2023, 00:46:34,    149,    0.0,   -0.1,   0.00,   0.00, 1021.0,    0.1, -999.0
15-02-2023, 00:46:44,    149,    0.0,    0.0,   0.00,   0.00, 1021.0,    0.0, -999.0
15-02-2023, 00:46:54,    150,    0.0,   -0.1,   0.00,   0.00, 1021.0,    0.1, -999.0